{"data":{"norad_id":42847,"epoch":"2026-05-25T00:09:45.588096Z","epoch_age_seconds":68287,"freshness":"FRESH","line1":"1 42847U 17042Y   26145.00677764  .00003528  00000+0  24383-3 0  9994","line2":"2 42847  97.4075 308.0628 0012326 161.9237 198.2432 15.06289604483600","mean_motion":15.06289604,"eccentricity":0.0012326,"inclination_deg":97.4075,"raan_deg":308.0628,"arg_perigee_deg":161.9237,"mean_anomaly_deg":198.2432,"bstar":0.00024383,"rev_number":48360,"period_min":95.599146151977,"perigee_km":539.01332473724,"apogee_km":556.0865281483,"semimajor_km":6925.6869264428,"source":"CELESTRAK","updated_at":"2026-05-25T13:38:25.529630Z"}}